This demonstration page uses our WeatherBlox Daily Observations layout. Learn more.

Left ArrowRight Arrow

Hourly Observations for January 16, 2017

Temp ( °F °C ) Dew Point ( °F °C ) Humidity (%) Winds ( mph kmh ) Pressure ( in mb ) Visibility ( mi km ) Precip ( " mm )
12:59 am 00:59 Cloudy 42 5.6 33 0.6 71 71 Calm 30.43 1031 10 16 0.00 0.00
1:59 am 01:59 Cloudy with Light Rain 42 5.6 34 1.1 73 73 Calm 30.44 1031 9 14 0.00 0.03
2:59 am 02:59 Cloudy with Light Rain 41 5 34 1.1 76 76 NE 6 9 30.45 1031 10 16 0.00 0.03
3:59 am 03:59 Cloudy with Light Rain 41 5 34 1.1 76 76 NE 6 9 30.44 1031 9 14 0.00 0.03
4:59 am 04:59 Cloudy with Light Rain 41 5 37 2.8 86 86 NE 3 6 30.44 1031 8 13 0.01 0.25
5:59 am 05:59 Cloudy with Light Rain 41 5 37 2.8 86 86 ENE 3 6 30.44 1031 8 13 0.02 0.51
6:59 am 06:59 Cloudy 41 5 37 2.8 86 86 NE 3 6 30.45 1031 8 13 0.00 0.03
7:59 am 07:59 Cloudy 41 5 35 1.7 79 79 ENE 5 7 30.46 1031 8 13 0.00 0.00
8:59 am 08:59 Cloudy 42 5.6 34 1.1 73 73 NE 5 7 30.49 1033 10 16 0.00 0.00
9:59 am 09:59 Cloudy 43 6.1 34 1.1 71 71 ENE 3 6 30.49 1033 9 14 0.00 0.00
10:21 am 10:21 Cloudy 43 6.1 35 1.7 74 74 NNE 5 7 30.50 1033 9 14 0.00 0.00
10:59 am 10:59 Cloudy 44 6.7 36 2.2 73 73 NE 6 9 30.49 1033 8 13 0.00 0.00
11:59 am 11:59 Cloudy 44 6.7 37 2.8 76 76 N 5 7 30.47 1032 7 11 0.00 0.00
12:59 pm 12:59 Cloudy 43 6.1 37 2.8 80 80 NE 5 7 30.44 1031 7 11 0.00 0.00
1:59 pm 13:59 Cloudy with Light Rain 44 6.7 38 3.3 79 79 NNE 6 9 30.41 1030 3 5 0.00 0.03
2:41 pm 14:41 Cloudy with Mist and Fog 43 6.1 38 3.3 82 82 Calm 30.42 1030 6 10 0.00 0.03
2:59 pm 14:59 Cloudy with Mist and Fog 44 6.7 38 3.3 79 79 E 3 6 30.41 1030 6 10 0.00 0.03
3:59 pm 15:59 Cloudy with Mist and Fog 44 6.7 37 2.8 76 76 E 5 7 30.40 1030 6 10 0.00 0.00
4:59 pm 16:59 Cloudy with Mist and Fog 43 6.1 37 2.8 80 80 ENE 3 6 30.41 1030 6 10 0.00 0.00
5:59 pm 17:59 Cloudy with Mist and Fog 43 6.1 37 2.8 80 80 E 3 6 30.40 1030 6 10 0.00 0.00
6:59 pm 18:59 Cloudy 43 6.1 37 2.8 80 80 ESE 5 7 30.39 1029 7 11 0.00 0.00
7:59 pm 19:59 Cloudy with Mist and Fog 44 6.7 38 3.3 79 79 E 3 6 30.38 1029 6 10 0.00 0.00
8:59 pm 20:59 Cloudy with Mist and Fog 44 6.7 39 3.9 83 83 ESE 3 6 30.37 1029 6 10 0.00 0.00
9:41 pm 21:41 Cloudy 44 6.7 38 3.3 79 79 Calm 30.36 1028 7 11 0.00 0.00
9:59 pm 21:59 Cloudy 44 6.7 38 3.3 79 79 Calm 30.37 1028 7 11 0.00 0.00
10:14 pm 22:14 Cloudy 44 6.7 38 3.3 79 79 Calm 30.36 1028 7 11 0.00 0.00
10:59 pm 22:59 Cloudy with Mist and Fog 43 6.1 39 3.9 86 86 Calm 30.35 1028 6 10 0.00 0.00
11:59 pm 23:59 Cloudy with Mist and Fog 45 7.2 41 5 86 86 Calm 30.33 1027 6 10 0.00 0.00

Powered by AerisWeather